Year,Month,Day,Hour,Minute,Value (Times are PST for temperature in C)
2018,05,28,00,00,13.60
2018,05,28,00,01,13.60
2018,05,28,00,02,13.60
2018,05,28,00,03,13.50
2018,05,28,00,04,13.50
2018,05,28,00,05,13.40
2018,05,28,00,06,13.40
2018,05,28,00,07,13.40
2018,05,28,00,08,13.40
2018,05,28,00,09,13.40
2018,05,28,00,10,13.40
2018,05,28,00,11,13.40
2018,05,28,00,12,13.40
2018,05,28,00,13,13.30
2018,05,28,00,14,13.30
2018,05,28,00,15,13.30
2018,05,28,00,16,13.30
2018,05,28,00,17,13.30
2018,05,28,00,18,13.30
2018,05,28,00,20,13.30
2018,05,28,00,22,13.30
2018,05,28,00,24,13.20
2018,05,28,00,25,13.20
2018,05,28,00,27,13.20
2018,05,28,00,29,13.10
2018,05,28,00,31,13.10
2018,05,28,00,33,13.10
2018,05,28,00,35,13.10
2018,05,28,00,36,13.00
2018,05,28,00,37,13.00
2018,05,28,00,38,13.00
2018,05,28,00,39,12.90
2018,05,28,00,40,12.90
2018,05,28,00,41,12.90
2018,05,28,00,43,12.90
2018,05,28,00,44,13.00
2018,05,28,00,45,12.90
2018,05,28,00,46,12.90
2018,05,28,00,47,12.90
2018,05,28,00,48,12.90
2018,05,28,00,49,12.90
2018,05,28,00,50,12.90
2018,05,28,00,51,12.90
2018,05,28,00,52,12.90
2018,05,28,00,53,12.90
2018,05,28,00,54,12.90
2018,05,28,00,55,12.90
2018,05,28,00,56,12.90
2018,05,28,00,57,12.90
2018,05,28,00,59,12.90
2018,05,28,01,00,12.90
2018,05,28,01,01,12.90
2018,05,28,01,02,12.90
2018,05,28,01,04,12.90
2018,05,28,01,05,12.90
2018,05,28,01,06,12.90
2018,05,28,01,07,12.80
2018,05,28,01,08,12.80
2018,05,28,01,10,12.80
2018,05,28,01,11,12.80
2018,05,28,01,12,12.80
2018,05,28,01,14,12.80
2018,05,28,01,15,12.80
2018,05,28,01,16,12.80
2018,05,28,01,17,12.80
2018,05,28,01,18,12.70
2018,05,28,01,19,12.70
2018,05,28,01,21,12.70
2018,05,28,01,22,12.70
2018,05,28,01,23,12.70
2018,05,28,01,24,12.70
2018,05,28,01,26,12.70
2018,05,28,01,27,12.60
2018,05,28,01,28,12.60
2018,05,28,01,29,12.60
2018,05,28,01,30,12.60
2018,05,28,01,32,12.60
2018,05,28,01,33,12.60
2018,05,28,01,35,12.60
2018,05,28,01,36,12.60
2018,05,28,01,37,12.60
2018,05,28,01,38,12.50
2018,05,28,01,39,12.50
2018,05,28,01,40,12.60
2018,05,28,01,41,12.50
2018,05,28,01,43,12.60
2018,05,28,01,45,12.60
2018,05,28,01,46,12.50
2018,05,28,01,47,12.50
2018,05,28,01,48,12.50
2018,05,28,01,49,12.50
2018,05,28,01,50,12.40
2018,05,28,01,52,12.40
2018,05,28,01,55,12.40
2018,05,28,01,57,12.40
2018,05,28,01,58,12.40
2018,05,28,01,59,12.40
2018,05,28,02,00,12.40
2018,05,28,02,01,12.40
2018,05,28,02,03,12.40
2018,05,28,02,04,12.40
2018,05,28,02,06,12.40
2018,05,28,02,08,12.40
2018,05,28,02,09,12.40
2018,05,28,02,10,12.40
2018,05,28,02,12,12.40
2018,05,28,02,13,12.40
2018,05,28,02,14,12.40
2018,05,28,02,16,12.50
2018,05,28,02,17,12.50
2018,05,28,02,18,12.50
2018,05,28,02,19,12.50
2018,05,28,02,20,12.50
2018,05,28,02,21,12.50
2018,05,28,02,22,12.50
2018,05,28,02,23,12.50
2018,05,28,02,24,12.50
2018,05,28,02,26,12.50
2018,05,28,02,27,12.50
2018,05,28,02,30,12.50
2018,05,28,02,31,12.40
2018,05,28,02,33,12.40
2018,05,28,02,34,12.40
2018,05,28,02,35,12.40
2018,05,28,02,36,12.40
2018,05,28,02,37,12.40
2018,05,28,02,38,12.40
2018,05,28,02,39,12.40
2018,05,28,02,41,12.40
2018,05,28,02,42,12.40
2018,05,28,02,43,12.40
2018,05,28,02,45,12.40
2018,05,28,02,46,12.40
2018,05,28,02,47,12.40
2018,05,28,02,48,12.40
2018,05,28,02,49,12.40
2018,05,28,02,50,12.40
2018,05,28,02,51,12.50
2018,05,28,02,53,12.60
2018,05,28,02,54,12.60
2018,05,28,02,55,12.60
2018,05,28,02,56,12.60
2018,05,28,02,57,12.60
2018,05,28,02,58,12.50
2018,05,28,02,59,12.50
2018,05,28,03,00,12.50
2018,05,28,03,01,12.50
2018,05,28,03,02,12.40
2018,05,28,03,03,12.50
2018,05,28,03,04,12.50
2018,05,28,03,05,12.40
2018,05,28,03,06,12.40
2018,05,28,03,07,12.40
2018,05,28,03,08,12.40
2018,05,28,03,09,12.40
2018,05,28,03,10,12.40
2018,05,28,03,11,12.40
2018,05,28,03,12,12.40
2018,05,28,03,13,12.50
2018,05,28,03,14,12.50
2018,05,28,03,15,12.50
2018,05,28,03,16,12.50
2018,05,28,03,17,12.50
2018,05,28,03,18,12.50
2018,05,28,03,19,12.50
2018,05,28,03,21,12.50
2018,05,28,03,22,12.40
2018,05,28,03,23,12.40
2018,05,28,03,24,12.40
2018,05,28,03,25,12.40
2018,05,28,03,28,12.40
2018,05,28,03,29,12.30
2018,05,28,03,30,12.30
2018,05,28,03,31,12.30
2018,05,28,03,32,12.30
2018,05,28,03,33,12.30
2018,05,28,03,34,12.30
2018,05,28,03,35,12.30
2018,05,28,03,36,12.30
2018,05,28,03,37,12.30
2018,05,28,03,38,12.30
2018,05,28,03,39,12.30
2018,05,28,03,41,12.30
2018,05,28,03,43,12.20
2018,05,28,03,44,12.20
2018,05,28,03,45,12.20
2018,05,28,03,46,12.20
2018,05,28,03,47,12.20
2018,05,28,03,48,12.20
2018,05,28,03,49,12.20
2018,05,28,03,50,12.30
2018,05,28,03,51,12.20
2018,05,28,03,52,12.30
2018,05,28,03,53,12.30
2018,05,28,03,54,12.30
2018,05,28,03,55,12.30
2018,05,28,03,56,12.30
2018,05,28,03,57,12.30
2018,05,28,03,58,12.30
2018,05,28,03,59,12.30
2018,05,28,04,00,12.20
2018,05,28,04,01,12.20
2018,05,28,04,02,12.20
2018,05,28,04,03,12.20
2018,05,28,04,04,12.20
2018,05,28,04,05,12.20
2018,05,28,04,06,12.20
2018,05,28,04,07,12.20
2018,05,28,04,08,12.20
2018,05,28,04,09,12.20
2018,05,28,04,10,12.20
2018,05,28,04,11,12.20
2018,05,28,04,12,12.20
2018,05,28,04,13,12.20
2018,05,28,04,14,12.20
2018,05,28,04,15,12.20
2018,05,28,04,17,12.20
2018,05,28,04,18,12.20
2018,05,28,04,19,12.20
2018,05,28,04,20,12.10
2018,05,28,04,22,12.20
2018,05,28,04,23,12.10
2018,05,28,04,24,12.10
2018,05,28,04,26,12.10
2018,05,28,04,27,12.10
2018,05,28,04,29,12.10
2018,05,28,04,31,12.10
2018,05,28,04,32,12.20
2018,05,28,04,33,12.20
2018,05,28,04,34,12.20
2018,05,28,04,36,12.20
2018,05,28,04,37,12.20
2018,05,28,04,39,12.20
2018,05,28,04,41,12.20
2018,05,28,04,42,12.20
2018,05,28,04,44,12.20
2018,05,28,04,45,12.20
2018,05,28,04,47,12.20
2018,05,28,04,48,12.20
2018,05,28,04,49,12.10
2018,05,28,04,50,12.10
2018,05,28,04,51,12.10
2018,05,28,04,52,12.10
2018,05,28,04,53,12.10
2018,05,28,04,54,12.10
2018,05,28,04,56,12.00
2018,05,28,04,58,11.90
2018,05,28,04,59,12.00
2018,05,28,05,01,11.90
2018,05,28,05,03,11.90
2018,05,28,05,04,11.90
2018,05,28,05,05,11.90
2018,05,28,05,06,11.90
2018,05,28,05,07,11.80
2018,05,28,05,08,11.80
2018,05,28,05,09,11.70
2018,05,28,05,10,11.60
2018,05,28,05,11,11.40
2018,05,28,05,12,11.30
2018,05,28,05,13,11.20
2018,05,28,05,14,11.20
2018,05,28,05,15,11.10
2018,05,28,05,16,11.00
2018,05,28,05,17,10.90
2018,05,28,05,18,10.80
2018,05,28,05,19,10.70
2018,05,28,05,20,10.70
2018,05,28,05,21,10.60
2018,05,28,05,22,10.60
2018,05,28,05,23,10.50
2018,05,28,05,24,10.50
2018,05,28,05,25,10.40
2018,05,28,05,26,10.40
2018,05,28,05,27,10.30
2018,05,28,05,28,10.30
2018,05,28,05,29,10.30
2018,05,28,05,30,10.30
2018,05,28,05,31,10.30
2018,05,28,05,32,10.30
2018,05,28,05,33,10.20
2018,05,28,05,34,10.20
2018,05,28,05,35,10.20
2018,05,28,05,36,10.20
2018,05,28,05,37,10.20
2018,05,28,05,38,10.10
2018,05,28,05,39,10.10
2018,05,28,05,41,10.10
2018,05,28,05,42,10.10
2018,05,28,05,43,10.10
2018,05,28,05,44,10.10
2018,05,28,05,45,10.10
2018,05,28,05,46,10.10
2018,05,28,05,47,10.10
2018,05,28,05,48,10.10
2018,05,28,05,49,10.10
2018,05,28,05,51,10.10
2018,05,28,05,52,10.10
2018,05,28,05,53,10.10
2018,05,28,05,54,10.10
2018,05,28,05,55,10.10
2018,05,28,05,56,10.00
2018,05,28,05,57,10.00
2018,05,28,05,58,9.90
2018,05,28,05,59,9.90
2018,05,28,06,00,9.90
2018,05,28,06,01,9.90
2018,05,28,06,02,9.90
2018,05,28,06,03,9.90
2018,05,28,06,04,9.90
2018,05,28,06,05,9.90
2018,05,28,06,06,9.90
2018,05,28,06,07,9.90
2018,05,28,06,08,9.80
2018,05,28,06,10,9.80
2018,05,28,06,11,9.80
2018,05,28,06,12,9.80
2018,05,28,06,13,9.80
2018,05,28,06,14,9.80
2018,05,28,06,16,9.80
2018,05,28,06,18,9.90
2018,05,28,06,19,9.90
2018,05,28,06,20,9.90
2018,05,28,06,22,10.00
2018,05,28,06,24,10.00
2018,05,28,06,25,10.10
2018,05,28,06,26,10.10
2018,05,28,06,27,10.10
2018,05,28,06,29,10.10
2018,05,28,06,30,10.20
2018,05,28,06,31,10.20
2018,05,28,06,32,10.20
2018,05,28,06,34,10.30
2018,05,28,06,35,10.30
2018,05,28,06,36,10.30
2018,05,28,06,38,10.40
2018,05,28,06,39,10.40
2018,05,28,06,41,10.60
2018,05,28,06,42,10.60
2018,05,28,06,43,10.70
2018,05,28,06,44,10.70
2018,05,28,06,45,10.80
2018,05,28,06,47,10.90
2018,05,28,06,48,11.10
2018,05,28,06,49,11.20
2018,05,28,06,50,11.20
2018,05,28,06,51,11.30
2018,05,28,06,52,11.30
2018,05,28,06,53,11.40
2018,05,28,06,54,11.40
2018,05,28,06,55,11.50
2018,05,28,06,56,11.60
2018,05,28,06,58,11.60
2018,05,28,06,59,11.70
2018,05,28,07,00,11.70
2018,05,28,07,02,11.80
2018,05,28,07,03,11.80
2018,05,28,07,04,11.80
2018,05,28,07,05,11.90
2018,05,28,07,06,11.90
2018,05,28,07,07,12.00
2018,05,28,07,08,12.10
2018,05,28,07,09,12.20
2018,05,28,07,11,12.20
2018,05,28,07,12,12.30
2018,05,28,07,14,12.40
2018,05,28,07,15,12.40
2018,05,28,07,17,12.50
2018,05,28,07,18,12.70
2018,05,28,07,20,12.80
2018,05,28,07,21,12.80
2018,05,28,07,23,13.00
2018,05,28,07,24,13.10
2018,05,28,07,26,13.20
2018,05,28,07,28,13.30
2018,05,28,07,31,13.40
2018,05,28,07,32,13.60
2018,05,28,07,33,13.60
2018,05,28,07,35,13.60
2018,05,28,07,36,13.70
2018,05,28,07,38,13.70
2018,05,28,07,39,13.80
2018,05,28,07,41,13.90
2018,05,28,07,43,14.00
2018,05,28,07,44,14.10
2018,05,28,07,45,14.10
2018,05,28,07,47,14.10
2018,05,28,07,48,14.10
2018,05,28,07,49,14.10
2018,05,28,07,50,14.20
2018,05,28,07,52,14.20
2018,05,28,07,53,14.20
2018,05,28,07,54,14.20
2018,05,28,07,57,14.30
2018,05,28,07,58,14.30
2018,05,28,08,00,14.30
2018,05,28,08,01,14.30
2018,05,28,08,02,14.30
2018,05,28,08,03,14.30
2018,05,28,08,04,14.30
2018,05,28,08,05,14.30
2018,05,28,08,06,14.40
2018,05,28,08,07,14.40
2018,05,28,08,08,14.40
2018,05,28,08,09,14.40
2018,05,28,08,11,14.50
2018,05,28,08,12,14.60
2018,05,28,08,13,14.70
2018,05,28,08,14,14.70
2018,05,28,08,15,14.80
2018,05,28,08,17,15.00
2018,05,28,08,18,15.10
2018,05,28,08,19,15.20
2018,05,28,08,21,15.30
2018,05,28,08,22,15.40
2018,05,28,08,23,15.40
2018,05,28,08,24,15.60
2018,05,28,08,26,15.70
2018,05,28,08,27,15.80
2018,05,28,08,29,15.90
2018,05,28,08,30,16.00
2018,05,28,08,31,16.10
2018,05,28,08,33,16.10
2018,05,28,08,34,16.10
2018,05,28,08,36,15.90
2018,05,28,08,38,15.80
2018,05,28,08,39,15.80
2018,05,28,08,40,15.80
2018,05,28,08,41,15.80
2018,05,28,08,42,15.70
2018,05,28,08,43,15.70
2018,05,28,08,44,15.70
2018,05,28,08,46,15.80
2018,05,28,08,47,15.80
2018,05,28,08,48,15.80
2018,05,28,08,50,15.90
2018,05,28,08,51,16.10
2018,05,28,08,53,16.10
2018,05,28,08,54,16.20
2018,05,28,08,55,16.20
2018,05,28,08,56,16.20
2018,05,28,08,57,16.30
2018,05,28,08,58,16.30
2018,05,28,08,59,16.30
2018,05,28,09,01,16.30
2018,05,28,09,02,16.30
2018,05,28,09,03,16.30
2018,05,28,09,05,16.30
2018,05,28,09,06,16.30
2018,05,28,09,08,16.30
2018,05,28,09,09,16.30
2018,05,28,09,10,16.30
2018,05,28,09,12,16.40
2018,05,28,09,13,16.50
2018,05,28,09,14,16.50
2018,05,28,09,15,16.60
2018,05,28,09,16,16.60
2018,05,28,09,18,16.70
2018,05,28,09,19,16.70
2018,05,28,09,20,16.70
2018,05,28,09,21,16.70
2018,05,28,09,22,16.70
2018,05,28,09,23,16.70
2018,05,28,09,24,16.70
2018,05,28,09,25,16.70
2018,05,28,09,26,16.70
2018,05,28,09,27,16.70
2018,05,28,09,28,16.70
2018,05,28,09,29,16.70
2018,05,28,09,30,16.60
2018,05,28,09,31,16.60
2018,05,28,09,32,16.60
2018,05,28,09,33,16.50
2018,05,28,09,34,16.40
2018,05,28,09,35,16.40
2018,05,28,09,36,16.40
2018,05,28,09,37,16.40
2018,05,28,09,39,16.40
2018,05,28,09,40,16.40
2018,05,28,09,41,16.40
2018,05,28,09,42,16.40
2018,05,28,09,43,16.40
2018,05,28,09,44,16.40
2018,05,28,09,45,16.50
2018,05,28,09,46,16.50
2018,05,28,09,47,16.60
2018,05,28,09,48,16.60
2018,05,28,09,49,16.60
2018,05,28,09,50,16.70
2018,05,28,09,51,16.70
2018,05,28,09,52,16.80
2018,05,28,09,53,16.80
2018,05,28,09,54,16.80
2018,05,28,09,55,16.80
2018,05,28,09,56,16.80
2018,05,28,09,57,16.80
2018,05,28,09,58,16.80
2018,05,28,10,00,16.80
2018,05,28,10,01,16.80
2018,05,28,10,02,16.80
2018,05,28,10,03,16.80
2018,05,28,10,04,16.80
2018,05,28,10,05,16.80
2018,05,28,10,06,16.80
2018,05,28,10,07,16.80
2018,05,28,10,08,16.80
2018,05,28,10,09,16.80
2018,05,28,10,10,16.80
2018,05,28,10,11,16.80
2018,05,28,10,12,16.80
2018,05,28,10,13,16.80
2018,05,28,10,14,16.80
2018,05,28,10,15,16.80
2018,05,28,10,17,16.70
2018,05,28,10,18,16.70
2018,05,28,10,19,16.70
2018,05,28,10,20,16.70
2018,05,28,10,22,16.70
2018,05,28,10,23,16.70
2018,05,28,10,25,16.70
2018,05,28,10,26,16.70
2018,05,28,10,27,16.70
2018,05,28,10,28,16.70
2018,05,28,10,29,16.80
2018,05,28,10,30,16.80
2018,05,28,10,31,16.80
2018,05,28,10,32,16.90
2018,05,28,10,33,16.90
2018,05,28,10,34,17.00
2018,05,28,10,35,17.10
2018,05,28,10,36,17.10
2018,05,28,10,38,17.20
2018,05,28,10,39,17.20
2018,05,28,10,41,17.20
2018,05,28,10,42,17.20
2018,05,28,10,44,17.20
2018,05,28,10,45,17.20
2018,05,28,10,47,17.30
2018,05,28,10,49,17.30
2018,05,28,10,51,17.40
2018,05,28,10,52,17.40
2018,05,28,10,53,17.40
2018,05,28,10,54,17.30
2018,05,28,10,55,17.30
2018,05,28,10,56,17.30
2018,05,28,10,57,17.30
2018,05,28,10,59,17.20
2018,05,28,11,00,17.20
2018,05,28,11,02,17.30
2018,05,28,11,03,17.30
2018,05,28,11,04,17.40
2018,05,28,11,05,17.60
2018,05,28,11,06,17.70
2018,05,28,11,07,17.80
2018,05,28,11,08,17.80
2018,05,28,11,09,17.80
2018,05,28,11,10,17.80
2018,05,28,11,11,17.80
2018,05,28,11,12,17.70
2018,05,28,11,13,17.70
2018,05,28,11,14,17.70
2018,05,28,11,15,17.70
2018,05,28,11,16,17.70
2018,05,28,11,17,17.80
2018,05,28,11,19,17.80
2018,05,28,11,20,17.90
2018,05,28,11,21,17.90
2018,05,28,11,22,18.10
2018,05,28,11,23,18.10
2018,05,28,11,24,18.20
2018,05,28,11,25,18.30
2018,05,28,11,26,18.40
2018,05,28,11,28,18.50
2018,05,28,11,29,18.50
2018,05,28,11,30,18.50
2018,05,28,11,31,18.50
2018,05,28,11,32,18.50
2018,05,28,11,33,18.40
2018,05,28,11,35,18.30
2018,05,28,11,36,18.30
2018,05,28,11,37,18.30
2018,05,28,11,38,18.30
2018,05,28,11,39,18.20
2018,05,28,11,40,18.20
2018,05,28,11,41,18.10
2018,05,28,11,42,18.10
2018,05,28,11,43,18.10
2018,05,28,11,44,18.20
2018,05,28,11,46,18.30
2018,05,28,11,47,18.40
2018,05,28,11,48,18.50
2018,05,28,11,49,18.60
2018,05,28,11,50,18.70
2018,05,28,11,51,18.80
2018,05,28,11,52,18.90
2018,05,28,11,53,18.90
2018,05,28,11,54,18.80
2018,05,28,11,55,18.80
2018,05,28,11,56,18.80
2018,05,28,11,57,18.80
2018,05,28,11,58,18.80
2018,05,28,11,59,18.90
2018,05,28,12,00,18.80
2018,05,28,12,01,18.80
2018,05,28,12,02,18.80
2018,05,28,12,03,18.80
2018,05,28,12,04,18.80
2018,05,28,12,06,18.70
2018,05,28,12,07,18.70
2018,05,28,12,08,18.80
2018,05,28,12,09,18.80
2018,05,28,12,10,18.90
2018,05,28,12,12,19.10
2018,05,28,12,13,19.10
2018,05,28,12,15,19.20
2018,05,28,12,16,19.30
2018,05,28,12,17,19.40
2018,05,28,12,18,19.40
2018,05,28,12,20,19.40
2018,05,28,12,21,19.40
2018,05,28,12,22,19.40
2018,05,28,12,23,19.50
2018,05,28,12,24,19.50
2018,05,28,12,25,19.50
2018,05,28,12,26,19.50
2018,05,28,12,27,19.60
2018,05,28,12,28,19.60
2018,05,28,12,30,19.70
2018,05,28,12,32,19.70
2018,05,28,12,34,19.70
2018,05,28,12,35,19.70
2018,05,28,12,37,19.60
2018,05,28,12,38,19.50
2018,05,28,12,40,19.30
2018,05,28,12,42,19.00
2018,05,28,12,43,18.90
2018,05,28,12,44,18.90
2018,05,28,12,45,18.90
2018,05,28,12,46,18.90
2018,05,28,12,47,19.00
2018,05,28,12,48,19.10
2018,05,28,12,49,19.10
2018,05,28,12,50,19.10
2018,05,28,12,51,19.10
2018,05,28,12,53,18.90
2018,05,28,12,54,18.80
2018,05,28,12,56,18.70
2018,05,28,12,57,18.70
2018,05,28,12,58,18.70
2018,05,28,12,59,18.70
2018,05,28,13,00,18.60
2018,05,28,13,01,18.60
2018,05,28,13,03,18.50
2018,05,28,13,04,18.60
2018,05,28,13,05,18.60
2018,05,28,13,06,18.70
2018,05,28,13,07,18.80
2018,05,28,13,09,19.00
2018,05,28,13,10,19.10
2018,05,28,13,11,19.00
2018,05,28,13,12,19.00
2018,05,28,13,13,19.00
2018,05,28,13,14,19.00
2018,05,28,13,15,19.00
2018,05,28,13,16,19.10
2018,05,28,13,17,19.10
2018,05,28,13,18,19.20
2018,05,28,13,19,19.20
2018,05,28,13,21,19.30
2018,05,28,13,22,19.30
2018,05,28,13,23,19.40
2018,05,28,13,25,19.40
2018,05,28,13,26,19.40
2018,05,28,13,27,19.50
2018,05,28,13,28,19.60
2018,05,28,13,29,19.60
2018,05,28,13,30,19.70
2018,05,28,13,31,19.70
2018,05,28,13,33,19.60
2018,05,28,13,34,19.60
2018,05,28,13,35,19.60
2018,05,28,13,36,19.50
2018,05,28,13,38,19.40
2018,05,28,13,39,19.40
2018,05,28,13,41,19.60
2018,05,28,13,43,19.60
2018,05,28,13,44,19.60
2018,05,28,13,45,19.60
2018,05,28,13,47,19.60
2018,05,28,13,49,19.60
2018,05,28,13,50,19.70
2018,05,28,13,51,19.70
2018,05,28,13,53,19.60
2018,05,28,13,54,19.50
2018,05,28,13,56,19.50
2018,05,28,13,57,19.60
2018,05,28,13,59,19.50
2018,05,28,14,00,19.40
2018,05,28,14,01,19.40
2018,05,28,14,02,19.40
2018,05,28,14,03,19.50
2018,05,28,14,04,19.60
2018,05,28,14,05,19.60
2018,05,28,14,07,19.80
2018,05,28,14,08,19.90
2018,05,28,14,09,19.90
2018,05,28,14,10,19.90
2018,05,28,14,12,19.80
2018,05,28,14,13,19.80
2018,05,28,14,15,19.80
2018,05,28,14,16,19.80
2018,05,28,14,18,19.80
2018,05,28,14,19,19.80
2018,05,28,14,20,19.80
2018,05,28,14,21,19.70
2018,05,28,14,22,19.70
2018,05,28,14,23,19.60
2018,05,28,14,24,19.60
2018,05,28,14,25,19.60
2018,05,28,14,26,19.70
2018,05,28,14,27,19.70
2018,05,28,14,29,19.80
2018,05,28,14,30,19.80
2018,05,28,14,31,19.80
2018,05,28,14,33,19.70
2018,05,28,14,35,19.70
2018,05,28,14,37,19.70
2018,05,28,14,38,19.60
2018,05,28,14,40,19.60
2018,05,28,14,41,19.60
2018,05,28,14,42,19.60
2018,05,28,14,44,19.60
2018,05,28,14,45,19.50
2018,05,28,14,47,19.40
2018,05,28,14,48,19.40
2018,05,28,14,49,19.40
2018,05,28,14,50,19.50
2018,05,28,14,51,19.60
2018,05,28,14,53,19.70
2018,05,28,14,55,19.80
2018,05,28,14,56,19.80
2018,05,28,14,58,19.80
2018,05,28,14,59,19.90
2018,05,28,15,00,19.90
2018,05,28,15,01,19.90
2018,05,28,15,03,19.80
2018,05,28,15,05,19.70
2018,05,28,15,06,19.60
2018,05,28,15,07,19.60
2018,05,28,15,08,19.60
2018,05,28,15,09,19.60
2018,05,28,15,11,19.60
2018,05,28,15,12,19.70
2018,05,28,15,13,19.80
2018,05,28,15,14,19.80
2018,05,28,15,16,19.80
2018,05,28,15,17,19.80
2018,05,28,15,18,19.70
2018,05,28,15,19,19.60
2018,05,28,15,20,19.60
2018,05,28,15,22,19.50
2018,05,28,15,24,19.40
2018,05,28,15,25,19.50
2018,05,28,15,27,19.50
2018,05,28,15,28,19.50
2018,05,28,15,29,19.60
2018,05,28,15,30,19.50
2018,05,28,15,31,19.50
2018,05,28,15,33,19.40
2018,05,28,15,34,19.40
2018,05,28,15,35,19.40
2018,05,28,15,36,19.40
2018,05,28,15,37,19.50
2018,05,28,15,38,19.60
2018,05,28,15,39,19.60
2018,05,28,15,40,19.60
2018,05,28,15,42,19.80
2018,05,28,15,43,19.80
2018,05,28,15,44,19.80
2018,05,28,15,46,19.70
2018,05,28,15,47,19.80
2018,05,28,15,48,19.80
2018,05,28,15,49,19.70
2018,05,28,15,50,19.70
2018,05,28,15,52,19.70
2018,05,28,15,53,19.80
2018,05,28,15,54,19.80
2018,05,28,15,55,19.80
2018,05,28,15,57,19.80
2018,05,28,15,58,19.90
2018,05,28,16,00,20.00
2018,05,28,16,01,20.10
2018,05,28,16,02,20.30
2018,05,28,16,04,20.30
2018,05,28,16,05,20.30
2018,05,28,16,06,20.20
2018,05,28,16,07,20.20
2018,05,28,16,08,20.10
2018,05,28,16,09,20.10
2018,05,28,16,11,20.10
2018,05,28,16,12,20.10
2018,05,28,16,13,20.10
2018,05,28,16,15,19.90
2018,05,28,16,16,19.90
2018,05,28,16,18,19.80
2018,05,28,16,19,19.80
2018,05,28,16,21,19.90
2018,05,28,16,23,19.90
2018,05,28,16,24,19.90
2018,05,28,16,25,19.80
2018,05,28,16,26,19.80
2018,05,28,16,27,19.80
2018,05,28,16,28,19.80
2018,05,28,16,30,19.90
2018,05,28,16,31,19.90
2018,05,28,16,32,19.90
2018,05,28,16,33,19.90
2018,05,28,16,34,19.90
2018,05,28,16,35,19.90
2018,05,28,16,36,19.90
2018,05,28,16,38,19.90
2018,05,28,16,39,20.00
2018,05,28,16,40,20.10
2018,05,28,16,41,20.10
2018,05,28,16,43,20.00
2018,05,28,16,44,19.90
2018,05,28,16,47,19.80
2018,05,28,16,48,19.80
2018,05,28,16,49,19.70
2018,05,28,16,50,19.70
2018,05,28,16,52,19.80
2018,05,28,16,53,19.80
2018,05,28,16,54,19.70
2018,05,28,16,55,19.60
2018,05,28,16,56,19.60
2018,05,28,16,59,19.60
2018,05,28,17,00,19.60
2018,05,28,17,02,19.60
2018,05,28,17,03,19.60
2018,05,28,17,04,19.60
2018,05,28,17,05,19.60
2018,05,28,17,07,19.60
2018,05,28,17,08,19.60
2018,05,28,17,09,19.50
2018,05,28,17,10,19.40
2018,05,28,17,11,19.40
2018,05,28,17,12,19.40
2018,05,28,17,13,19.40
2018,05,28,17,14,19.40
2018,05,28,17,15,19.30
2018,05,28,17,17,19.40
2018,05,28,17,19,19.40
2018,05,28,17,20,19.40
2018,05,28,17,21,19.40
2018,05,28,17,22,19.40
2018,05,28,17,24,19.50
2018,05,28,17,25,19.50
2018,05,28,17,27,19.50
2018,05,28,17,28,19.50
2018,05,28,17,30,19.50
2018,05,28,17,31,19.50
2018,05,28,17,32,19.40
2018,05,28,17,33,19.40
2018,05,28,17,34,19.40
2018,05,28,17,37,19.30
2018,05,28,17,38,19.30
2018,05,28,17,39,19.20
2018,05,28,17,40,19.10
2018,05,28,17,41,19.10
2018,05,28,17,42,19.10
2018,05,28,17,43,19.00
2018,05,28,17,44,19.00
2018,05,28,17,45,19.00
2018,05,28,17,46,18.90
2018,05,28,17,47,18.90
2018,05,28,17,48,18.90
2018,05,28,17,49,18.90
2018,05,28,17,50,18.90
2018,05,28,17,51,18.80
2018,05,28,17,52,18.80
2018,05,28,17,58,18.80
2018,05,28,18,00,18.90
2018,05,28,18,01,18.90
2018,05,28,18,02,19.00
2018,05,28,18,03,19.10
2018,05,28,18,05,19.10
2018,05,28,18,06,19.10
2018,05,28,18,08,19.00
2018,05,28,18,09,19.00
2018,05,28,18,12,18.90
2018,05,28,18,13,18.90
2018,05,28,18,16,18.80
2018,05,28,18,17,18.80
2018,05,28,18,18,18.80
2018,05,28,18,19,18.80
2018,05,28,18,20,18.80
2018,05,28,18,21,18.80
2018,05,28,18,22,18.80
2018,05,28,18,23,18.80
2018,05,28,18,26,18.80
2018,05,28,18,27,18.70
2018,05,28,18,30,18.60
2018,05,28,18,31,18.70
2018,05,28,18,33,18.70
2018,05,28,18,34,18.70
2018,05,28,18,35,18.70
2018,05,28,18,36,18.70
2018,05,28,18,37,18.70
2018,05,28,18,39,18.70
2018,05,28,18,41,18.70
2018,05,28,18,42,18.60
2018,05,28,18,44,18.60
2018,05,28,18,46,18.60
2018,05,28,18,47,18.60
2018,05,28,18,48,18.60
2018,05,28,18,49,18.60
2018,05,28,18,50,18.50
2018,05,28,18,53,18.40
2018,05,28,18,54,18.40
2018,05,28,18,55,18.40
2018,05,28,18,56,18.40
2018,05,28,18,57,18.30
2018,05,28,18,59,18.30
2018,05,28,19,01,18.30
2018,05,28,19,02,18.30
2018,05,28,19,03,18.30
2018,05,28,19,04,18.20
2018,05,28,19,05,18.20
2018,05,28,19,06,18.20
2018,05,28,19,07,18.10
2018,05,28,19,08,18.10
2018,05,28,19,10,18.00
2018,05,28,19,11,17.90
2018,05,28,19,12,17.90
2018,05,28,19,13,17.90
2018,05,28,19,14,17.80
2018,05,28,19,15,17.80
2018,05,28,19,16,17.80
2018,05,28,19,19,17.80
2018,05,28,19,20,17.80
2018,05,28,19,21,17.80
2018,05,28,19,22,17.80
2018,05,28,19,23,17.70
2018,05,28,19,24,17.70
2018,05,28,19,25,17.70
2018,05,28,19,26,17.60
2018,05,28,19,27,17.60
2018,05,28,19,28,17.60
2018,05,28,19,29,17.60
2018,05,28,19,30,17.50
2018,05,28,19,31,17.50
2018,05,28,19,32,17.50
2018,05,28,19,33,17.50
2018,05,28,19,34,17.40
2018,05,28,19,35,17.40
2018,05,28,19,36,17.40
2018,05,28,19,37,17.30
2018,05,28,19,39,17.30
2018,05,28,19,40,17.20
2018,05,28,19,42,17.20
2018,05,28,19,43,17.10
2018,05,28,19,45,17.10
2018,05,28,19,46,17.00
2018,05,28,19,47,17.00
2018,05,28,19,48,16.90
2018,05,28,19,49,16.90
2018,05,28,19,50,16.90
2018,05,28,19,51,16.80
2018,05,28,19,52,16.80
2018,05,28,19,53,16.80
2018,05,28,19,54,16.70
2018,05,28,19,55,16.70
2018,05,28,19,56,16.70
2018,05,28,19,57,16.70
2018,05,28,19,58,16.60
2018,05,28,20,00,16.60
2018,05,28,20,01,16.60
2018,05,28,20,02,16.60
2018,05,28,20,03,16.60
2018,05,28,20,04,16.60
2018,05,28,20,05,16.60
2018,05,28,20,06,16.60
2018,05,28,20,07,16.60
2018,05,28,20,08,16.50
2018,05,28,20,10,16.50
2018,05,28,20,11,16.40
2018,05,28,20,12,16.40
2018,05,28,20,13,16.40
2018,05,28,20,15,16.40
2018,05,28,20,16,16.40
2018,05,28,20,19,16.20
2018,05,28,20,20,16.10
2018,05,28,20,21,16.00
2018,05,28,20,22,16.00
2018,05,28,20,23,15.90
2018,05,28,20,24,15.90
2018,05,28,20,25,15.90
2018,05,28,20,27,15.80
2018,05,28,20,28,15.80
2018,05,28,20,30,15.80
2018,05,28,20,31,15.70
2018,05,28,20,32,15.70
2018,05,28,20,33,15.70
2018,05,28,20,35,15.60
2018,05,28,20,37,15.60
2018,05,28,20,38,15.60
2018,05,28,20,39,15.50
2018,05,28,20,41,15.50
2018,05,28,20,42,15.40
2018,05,28,20,44,15.40
2018,05,28,20,45,15.40
2018,05,28,20,46,15.40
2018,05,28,20,47,15.40
2018,05,28,20,48,15.30
2018,05,28,20,49,15.30
2018,05,28,20,51,15.30
2018,05,28,20,52,15.20
2018,05,28,20,53,15.20
2018,05,28,20,54,15.20
2018,05,28,20,55,15.10
2018,05,28,20,56,15.10
2018,05,28,20,57,15.10
2018,05,28,20,59,15.00
2018,05,28,21,00,14.90
2018,05,28,21,01,14.90
2018,05,28,21,03,14.90
2018,05,28,21,04,14.90
2018,05,28,21,05,14.80
2018,05,28,21,06,14.80
2018,05,28,21,07,14.80
2018,05,28,21,08,14.80
2018,05,28,21,09,14.70
2018,05,28,21,10,14.70
2018,05,28,21,11,14.70
2018,05,28,21,12,14.70
2018,05,28,21,13,14.70
2018,05,28,21,14,14.60
2018,05,28,21,16,14.60
2018,05,28,21,17,14.60
2018,05,28,21,19,14.50
2018,05,28,21,20,14.50
2018,05,28,21,21,14.50